Regional Weather Roundup
Issued by NWS

Home | Current Version | Previous Version | Graphics & Text | Print | Product List | Glossary On
Versions: 1 2 3 4 5 6 7 8 9 10 11 12 13 14 15 16 17 18 19 20 21 22 23 24 25 26 27 28 29 30 31 32 33 34 35 36 37 38 39 40 41 42 43 44 45 46 47 48 49 50
000
ASUS43 KDMX 270607
RWRIA

WEATHER ROUNDUP FOR IOWA
NATIONAL WEATHER SERVICE DES MOINES IA
100 AM CDT THU AUG 27 2015

NOTE: "FAIR" INDICATES FEW OR NO CLOUDS BELOW 12,000 FEET WITH NO
SIGNIFICANT WEATHER AND/OR OBSTRUCTIONS TO VISIBILITY.

* - THESE STATIONS ARE NOT NWS STATIONS...THUS NOT UNDER NWS
QUALITY CONTROL.  THEY ALSO DO NOT REPORT WEATHER SUCH
AS PRECIPITATION OR FOG.

IAZ001>003-012>014-020>022-031>034-043>046-270700-
   NORTHWEST IOWA

CITY           SKY/WX    TMP DP  RH WIND       PRES   REMARKS
CARROLL *      CLOUDY    55  55 100 SE5       30.10F
CHEROKEE *       N/A     59  57  92 S5        30.07F
DENISON *      PTCLDY    63  55  77 SE7       30.07F
LE MARS *      CLEAR     63  61  94 S5        30.05F
ORANGE CITY *  CLEAR     61  57  88 SE5       30.06F
SHELDON *      CLEAR     61  57  88 SE7       30.06S
SIOUX CITY       N/A     62  58  86 SE8       30.04F
6HR MIN TEMP:  62; 6HR MAX TEMP:  75;

SPENCER          N/A     58  52  80 SE8       30.09F
6HR MIN TEMP:  57; 6HR MAX TEMP:  70;

STORM LAKE *   CLEAR     59  55  88 SE8       30.09F
$$

IAZ055>058-069>071-079>083-090>094-270700-
   SOUTHWEST IOWA

CITY           SKY/WX    TMP DP  RH WIND       PRES   REMARKS
ATLANTIC *     CLOUDY    61  55  82 E3        30.10S
AUDUBON *      CLEAR     55  52  88 CALM      30.12S
CLARINDA *     CLEAR     63  55  77 SE6       30.11F
COUNCIL BLFS * CLEAR     63  61  94 SE8       30.08F
CRESTON *      CLEAR     59  55  88 SE5       30.14S
HARLAN  *      CLEAR     61  61 100 CALM      30.13S
LAMONI           N/A     63  56  78 SE5       30.13F
6HR MIN TEMP:  63; 6HR MAX TEMP:  74;

RED OAK *      CLEAR     63  57  82 S3        30.09F
SHENANDOAH *   CLEAR     64  59  82 SE6       30.09S
$$

IAZ047>049-059>061-072>074-084-270700-
   CENTRAL IOWA

CITY           SKY/WX    TMP DP  RH WIND       PRES   REMARKS
AMES             N/A     53  52  96 SE3       30.12S
6HR MIN TEMP:  53; 6HR MAX TEMP:  70;

ANKENY *       CLEAR     55  55 100 CALM      30.12S
CHARITON *     PTCLDY    59  57  94 SE5       30.13F
DES MOINES       N/A     65  54  67 SE8       30.12F
6HR MIN TEMP:  64; 6HR MAX TEMP:  74;

GRINNELL*        N/A     59  54  82 SE3       30.15S
KNOXVILLE *    CLEAR     59  55  88 SE5       30.12F
MARSHALLTOWN     N/A     55  53  93 SE6       30.12F
6HR MIN TEMP:  54; 6HR MAX TEMP:  71;

PELLA *          N/A     58  57  94 CALM      30.14F
PERRY *          N/A     55  54  94 S5        30.11S
$$

IAZ004>006-015-016-023>025-035-036-270700-
   NORTH CENTRAL IOWA

CITY           SKY/WX    TMP DP  RH WIND       PRES   REMARKS
ALGONA *       CLEAR     59  55  88 SE6       30.11S
CLARION *      CLEAR     57  54  88 SE8       30.12R
ESTHERVILLE      N/A     54  53  97 S6        30.10S
6HR MIN TEMP:  54; 6HR MAX TEMP:  68;

FORT DODGE *     N/A     59  52  77 SE3       30.12S
MASON CITY       N/A     51  50  96 S5        30.14S
6HR MIN TEMP:  51; 6HR MAX TEMP:  70;

FOREST CITY *    N/A     52  50  93 SE3       30.12S
IOWA FALLS *     N/A     55  54  94 CALM      30.14S
$$

IAZ007>011-017>019-026>030-037>042-050>054-066-270700-
   NORTHEAST IOWA

CITY           SKY/WX    TMP DP  RH WIND       PRES   REMARKS
CEDAR RAPIDS     N/A     54  54 100 CALM      30.14S
6HR MIN TEMP:  54; 6HR MAX TEMP:  69;

CHARLES CITY * CLEAR     55  54  94 SE5       30.14S
CLINTON *        N/A     57  54  88 SE5       30.19R
DECORAH *      CLOUDY    57  50  77 CALM      30.14S
DUBUQUE          N/A     59  56  89 SE9       30.16S
6HR MIN TEMP:  59; 6HR MAX TEMP:  71;

MONTICELLO *   CLEAR     52  50  93 CALM      30.15S
OELWEIN *      CLEAR     54  52  94 SE3       30.15F
WATERLOO         N/A     52  50  93 CALM      30.13F
6HR MIN TEMP:  51; 6HR MAX TEMP:  72;

$$

IAZ064-065-067-068-078-270700-
   EAST CENTRAL IOWA

CITY           SKY/WX    TMP DP  RH WIND       PRES   REMARKS
DAVENPORT        N/A     57  54  89 S6        30.16R
6HR MIN TEMP:  55; 6HR MAX TEMP:  71;

IOWA CITY        N/A     57  53  86 CALM      30.15F
6HR MIN TEMP:  56; 6HR MAX TEMP:  73;

MT. PLEASANT *   N/A     57  53  85 CALM      30.15F
MUSCATINE *    CLEAR     57  55  94 CALM      30.15S
QUAD CITIES      N/A     60  54  80 E3        30.15R
6HR MIN TEMP:  58; 6HR MAX TEMP:  73;

$$

IAZ062-063-075>077-085>089-095>099-270700-
   SOUTHEAST IOWA

CITY           SKY/WX    TMP DP  RH WIND       PRES   REMARKS
BURLINGTON       N/A     60  56  86 SE6       30.15S
6HR MIN TEMP:  58; 6HR MAX TEMP:  74;

FAIRFIELD *    CLEAR     57  52  82 SE3       30.15S
FORT MADISON * CLEAR     57  57 100 CALM      30.16S
KEOKUK *       CLEAR     59  57  94 E3        30.15R
OSKALOOSA *      N/A     56  52  89 SE5       30.14F
CENTERVILLE *  CLEAR     57  55  94 SE3       30.16S
OTTUMWA          N/A     56  54  93 SE6       30.13S
6HR MIN TEMP:  56; 6HR MAX TEMP:  74;

WASHINGTON *     N/A    N/A N/A N/A MISG        N/A
$$

ABBREVIATIONS USED IN REMARKS
   TC - TEMPERATURES IN CELSIUS
  WCI - WIND CHILL INDEX
   HX - HEAT INDEX
  VSB - VISIBILITY
$$



USA.gov is the U.S. government's official web portal to all federal, state and local government web resources and services.